Weather History for Aberdeen, SD

Change the Weather History Date:

Tuesday, May 8, 2012

  Actual Average Record
Temperature  
Mean Temperature 52 °F 54 °F  
Max Temperature 57 °F 67 °F 105 °F (1934)
Min Temperature 46 °F 41 °F 22 °F (1945)
Degree Days  
Heating Degree Days 13 11  
Month to date heating degree days 47 100  
Since 1 July heating degree days 6649 8271  
Cooling Degree Days 0 0  
Month to date cooling degree days 0 0  
Year to date cooling degree days 8 2  
Growing Degree Days 2 (Base 50)    
Moisture  
Dew Point 41 °F    
Average Humidity 71    
Maximum Humidity 86    
Minimum Humidity 55    
Precipitation  
Precipitation 0.00 in 0.10 in 3.37 in (1945)
Month to date precipitation 0.56 0.81  
Year to date precipitation 6.16 4.84  
Sea Level Pressure  
Sea Level Pressure 30.04 in    
Wind  
Wind Speed 15 mph (NNW)    
Max Wind Speed 24 mph    
Max Gust Speed 30 mph    
Visibility 10 miles    
Events      
T = Trace of Precipitation, MM = Missing Value Source: NWS Daily Summary

Daily Weather History Graph

Daily Weather History Graph

Search for Another Location

Airport:

Trip Planner

Search our weather history database for the weather conditions in past years. The results will help you decide how hot, cold, wet, or windy it might be!

Date:

Astronomy

May. 08, 2012 Rise Set
Actual Time 6:11 AM CDT 8:49 PM CDT
Civil Twilight 5:37 AM CDT 9:23 PM CDT
Nautical Twilight 4:55 AM CDT 10:06 PM CDT
Astronomical Twilight 4:06 AM CDT 10:55 PM CDT
Moon No Moon Rise 8:16 AM CDT (5/8)
Length of Visible Light 15h 45m
Length of Day
14h 38m
Waning Gibbous, 90% of the Moon is Illuminated
May 8
Waning Gibbous
May 12
Last Quarter
May 20
New
May 28
First Quarter
Jun 4
Full

Hourly Weather History & Observations

Time (CDT) Temp. Windchill Dew Point Humidity Pressure Visibility Wind Dir Wind Speed Gust Speed Precip Events Conditions
12:53 AM 46.9 °F - 41.0 °F 80% 29.99 in 10.0 mi West 11.5 mph - N/A   Clear
1:53 AM 48.0 °F - 41.0 °F 77% 29.98 in 10.0 mi WNW 12.7 mph - N/A   Scattered Clouds
2:53 AM 46.0 °F 40.2 °F 41.0 °F 83% 29.98 in 10.0 mi WNW 12.7 mph - N/A   Clear
3:53 AM 46.9 °F - 41.0 °F 80% 29.98 in 10.0 mi NW 16.1 mph 21.9 mph N/A   Mostly Cloudy
4:53 AM 46.9 °F - 41.0 °F 80% 29.98 in 10.0 mi WNW 11.5 mph - N/A   Overcast
5:53 AM 48.0 °F - 42.1 °F 80% 29.98 in 10.0 mi NW 11.5 mph - N/A   Overcast
6:06 AM 48.2 °F - 42.8 °F 82% 29.97 in 10.0 mi NW 19.6 mph 26.5 mph N/A   Overcast
6:53 AM 46.9 °F - 42.1 °F 83% 30.01 in 10.0 mi NNW 13.8 mph - N/A   Overcast
7:07 AM 46.4 °F 40.1 °F 42.8 °F 87% 30.00 in 10.0 mi NW 15.0 mph - N/A   Overcast
7:44 AM 48.2 °F - 41.0 °F 76% 30.01 in 10.0 mi NNW 17.3 mph - N/A   Overcast
7:53 AM 46.9 °F - 42.1 °F 83% 30.02 in 8.0 mi NNW 18.4 mph - N/A   Overcast
8:53 AM 50.0 °F - 43.0 °F 77% 30.04 in 10.0 mi North 18.4 mph 21.9 mph N/A   Overcast
9:39 AM 50.0 °F - 41.0 °F 71% 30.03 in 10.0 mi North 21.9 mph 26.5 mph N/A   Overcast
9:53 AM 50.0 °F - 41.0 °F 71% 30.05 in 10.0 mi North 21.9 mph 27.6 mph N/A   Overcast
10:01 AM 51.8 °F - 41.0 °F 67% 30.04 in 10.0 mi North 21.9 mph 27.6 mph N/A   Overcast
10:53 AM 53.1 °F - 39.0 °F 59% 30.06 in 10.0 mi NNW 20.7 mph 26.5 mph N/A   Overcast
11:53 AM 54.0 °F - 39.9 °F 59% 30.06 in 10.0 mi NNW 18.4 mph 24.2 mph N/A   Overcast
12:53 PM 54.0 °F - 39.9 °F 59% 30.08 in 10.0 mi North 21.9 mph 26.5 mph N/A   Overcast
1:53 PM 55.0 °F - 39.0 °F 55% 30.07 in 10.0 mi NNW 17.3 mph 25.3 mph N/A   Overcast
2:53 PM 55.9 °F - 39.0 °F 53% 30.07 in 10.0 mi NNW 13.8 mph - N/A   Overcast
3:53 PM 54.0 °F - 39.9 °F 59% 30.08 in 10.0 mi NNW 18.4 mph 27.6 mph N/A   Overcast
4:53 PM 55.9 °F - 41.0 °F 57% 30.08 in 10.0 mi NNW 19.6 mph 26.5 mph N/A   Overcast
5:53 PM 54.0 °F - 39.9 °F 59% 30.09 in 10.0 mi NNW 15.0 mph - N/A   Overcast
6:53 PM 54.0 °F - 39.9 °F 59% 30.09 in 10.0 mi NNW 16.1 mph 23.0 mph N/A   Overcast
7:53 PM 53.1 °F - 39.9 °F 61% 30.10 in 10.0 mi NNW 15.0 mph 21.9 mph N/A   Overcast
8:53 PM 51.1 °F - 39.9 °F 66% 30.10 in 10.0 mi NNW 10.4 mph - N/A   Overcast
9:53 PM 50.0 °F - 39.9 °F 68% 30.11 in 10.0 mi NNW 9.2 mph - N/A   Overcast
10:53 PM 48.9 °F - 39.9 °F 71% 30.12 in 10.0 mi NW 5.8 mph - N/A   Overcast
11:53 PM 48.9 °F - 39.9 °F 71% 30.12 in 10.0 mi NW 5.8 mph - N/A   Overcast